Weather History for Nashua, NH

Change the Weather History Date:

Wednesday, March 13, 2013

  Actual Average Record
Temperature  
Mean Temperature 42 °F -  
Max Temperature 50 °F 43 °F 72 °F (1990)
Min Temperature 32 °F 23 °F 6 °F (1998)
Degree Days  
Heating Degree Days 24    
Moisture  
Dew Point 29 °F    
Average Humidity 60    
Maximum Humidity 88    
Minimum Humidity 33    
Precipitation  
Precipitation 0.00 in - - ()
Sea Level Pressure  
Sea Level Pressure 30.40 in    
Wind  
Wind Speed 8 mph (WNW)    
Max Wind Speed 17 mph    
Max Gust Speed 22 mph    
Visibility 10 miles    
Events      
Averages and records for this station are not official NWS values.
T = Trace of Precipitation, MM = Missing Value Source: NWS Daily Summary

Daily Weather History Graph

Daily Weather History Graph

Search for Another Location

Airport:

Trip Planner

Search our weather history database for the weather conditions in past years. The results will help you decide how hot, cold, wet, or windy it might be!

Date:

Astronomy

Mar. 13, 2013 Rise Set
Actual Time 7:01 AM EDT 6:50 PM EDT
Civil Twilight 6:33 AM EDT 7:18 PM EDT
Nautical Twilight 6:00 AM EDT 7:51 PM EDT
Astronomical Twilight 5:27 AM EDT 8:24 PM EDT
Moon 7:35 AM EDT (3/13) 9:08 PM EDT (3/13)
Length of Visible Light 12h 45m
Length of Day
11h 49m
Waxing Crescent, 4% of the Moon is Illuminated
Mar 13
Waxing Crescent
Mar 19
First Quarter
Mar 27
Full
Apr 3
Last Quarter
Apr 10
New

Hourly Weather History & Observations

Time (EDT) Temp. Windchill Dew Point Humidity Pressure Visibility Wind Dir Wind Speed Gust Speed Precip Events Conditions
12:00 AM 51.8 °F - 48.2 °F 88% 29.73 in 10.0 mi WSW 5.8 mph - N/A   Overcast
12:20 AM 50.0 °F - 46.4 °F 87% 29.74 in 10.0 mi WNW 6.9 mph - N/A   Overcast
12:59 AM 46.4 °F 41.1 °F 39.2 °F 76% 29.76 in 10.0 mi WNW 11.5 mph - N/A   Mostly Cloudy
1:51 AM 43.9 °F 37.2 °F 36.9 °F 76% 30.49 in 10.0 mi NW 13.8 mph - N/A   Overcast
2:51 AM 39.9 °F 35.8 °F 36.0 °F 86% 30.50 in 10.0 mi NW 5.8 mph - N/A   Clear
3:51 AM 38.8 °F 33.8 °F 34.9 °F 86% 30.50 in 10.0 mi NW 6.9 mph - N/A   Clear
5:51 AM 36.9 °F 31.4 °F 31.1 °F 80% 30.52 in 10.0 mi WNW 6.9 mph - N/A   Clear
6:51 AM 36.9 °F 30.7 °F 29.1 °F 74% 30.51 in 10.0 mi NW 8.1 mph - N/A   Clear
8:51 AM 41.0 °F 35.2 °F 31.1 °F 68% 30.50 in 10.0 mi NNW 9.2 mph - N/A   Clear
9:51 AM 43.0 °F 35.4 °F 31.1 °F 63% 30.49 in 10.0 mi NNW 16.1 mph - N/A   Partly Cloudy
10:51 AM 45.9 °F 40.4 °F 30.0 °F 54% 30.49 in 10.0 mi WNW 11.5 mph - N/A   Clear
11:51 AM 46.9 °F - 30.0 °F 52% 30.48 in 10.0 mi NW 9.2 mph - N/A   Partly Cloudy
12:51 PM 48.9 °F - 28.0 °F 44% 30.48 in 10.0 mi NW 13.8 mph 20.7 mph N/A   Scattered Clouds
1:51 PM 48.9 °F - 26.1 °F 41% 30.47 in 10.0 mi NW 17.3 mph 21.9 mph N/A   Clear
2:51 PM 47.8 °F - 25.2 °F 41% 30.46 in 10.0 mi WNW 11.5 mph 17.3 mph N/A   Clear
3:51 PM 47.8 °F - 23.0 °F 38% 30.45 in 10.0 mi Variable 6.9 mph - N/A   Clear
5:51 PM 46.9 °F - 19.0 °F 33% 30.47 in 10.0 mi WNW 10.4 mph - N/A   Partly Cloudy
6:51 PM 45.0 °F 41.8 °F 19.0 °F 36% 30.49 in 10.0 mi WNW 5.8 mph - N/A   Clear
7:51 PM 41.9 °F 39.0 °F 19.0 °F 40% 30.50 in 10.0 mi West 4.6 mph - N/A   Clear
8:51 PM 38.8 °F 36.5 °F 19.0 °F 45% 30.52 in 10.0 mi West 3.5 mph - N/A   Clear
9:51 PM 36.0 °F 33.3 °F 20.1 °F 53% 30.53 in 10.0 mi West 3.5 mph - N/A   Clear
10:51 PM 32.9 °F - 22.1 °F 65% 30.53 in 10.0 mi Calm Calm - N/A   Clear
11:51 PM 32.0 °F 28.7 °F 21.0 °F 64% 30.51 in 10.0 mi NW 3.5 mph - N/A   Clear